Honolulu, HI

3:31 AM HST on September 26, 2016 (GMT -1000)
Honolulu International

Weather History for PHNL - April, 2014

Change the Weather History Date:

Wednesday, April 16, 2014

  Actual Average Record
Temperature  
Mean Temperature 78 °F 76 °F  
Max Temperature 84 °F 83 °F 88 °F (1988)
Min Temperature 72 °F 69 °F 63 °F (1959)
Degree Days  
Heating Degree Days 0 0  
Month to date heating degree days 0 0  
Since 1 July heating degree days 0 0  
Cooling Degree Days 13 11  
Month to date cooling degree days 186 176  
Year to date cooling degree days 1014 951  
Growing Degree Days 28 (Base 50)    
Moisture  
Dew Point 62 °F    
Average Humidity 58    
Maximum Humidity 68    
Minimum Humidity 47    
Precipitation  
Precipitation T in 0.02 in 2.07 in (1968)
Month to date precipitation 0.16 0.43  
Year to date precipitation 6.45 6.75  
Snow  
Snow 0.00 in - - ()
Month to date snowfall 0.0  
Since 1 July snowfall 0.0  
Snow Depth 0.00 in    
Sea Level Pressure  
Sea Level Pressure 30.09 in    
Wind  
Wind Speed 13 mph (NE)    
Max Wind Speed 23 mph    
Max Gust Speed 31 mph    
Visibility 10 miles    
Events Rain    
T = Trace of Precipitation, MM = Missing Value Source: NWS Daily Summary

Daily Weather History Graph

Daily Weather History Graph

Search for Another Location

Airport or City:

Trip Planner

Search our weather history database for the weather conditions in past years. The results will help you decide how hot, cold, wet, or windy it might be!

Date:

Astronomy

Apr. 16, 2014 Rise Set
Actual Time 6:11 AM HST 6:51 PM HST
Civil Twilight 5:48 AM HST 7:14 PM HST
Nautical Twilight 5:22 AM HST 7:40 PM HST
Astronomical Twilight 4:55 AM HST 8:07 PM HST
Moon 8:35 PM HST (4/16) 7:15 AM HST (4/16)
Length of Visible Light 13h 25m
Length of Day
12h 39m
Full, 97% of the Moon is Illuminated
Apr 16
Full
Apr 21
Last Quarter
Apr 28
New
May 6
First Quarter
May 14
Full

Hourly Weather History & Observations

Time (HST) Temp. Heat Index Dew Point Humidity Pressure Visibility Wind Dir Wind Speed Gust Speed Precip Events Conditions
12:53 AM 73.0 °F - 63.0 °F 71% 30.10 in 10.0 mi NE 12.7 mph - N/A   Scattered Clouds
1:53 AM 73.0 °F - 63.0 °F 71% 30.08 in 10.0 mi NE 12.7 mph - N/A   Partly Cloudy
2:53 AM 73.0 °F - 62.1 °F 68% 30.06 in 10.0 mi NE 6.9 mph - N/A   Clear
3:53 AM 73.0 °F - 61.0 °F 66% 30.05 in 10.0 mi NE 10.4 mph - N/A   Partly Cloudy
4:53 AM 73.0 °F - 61.0 °F 66% 30.06 in 10.0 mi NNE 6.9 mph - N/A   Partly Cloudy
5:53 AM 72.0 °F - 61.0 °F 68% 30.08 in 10.0 mi NNE 8.1 mph - N/A   Partly Cloudy
6:53 AM 73.0 °F - 61.0 °F 66% 30.10 in 10.0 mi NNE 9.2 mph - N/A   Partly Cloudy
7:53 AM 73.9 °F - 63.0 °F 68% 30.12 in 10.0 mi NNE 13.8 mph - 0.00 in Rain Light Rain
8:53 AM 78.1 °F - 61.0 °F 56% 30.12 in 10.0 mi NE 13.8 mph 26.5 mph 0.00 in   Scattered Clouds
9:53 AM 80.1 °F 81.1 °F 61.0 °F 52% 30.12 in 10.0 mi ENE 18.4 mph - N/A   Scattered Clouds
10:53 AM 81.0 °F 81.9 °F 62.1 °F 52% 30.11 in 10.0 mi NNE 15.0 mph 25.3 mph N/A   Scattered Clouds
11:53 AM 81.0 °F 81.6 °F 60.1 °F 49% 30.09 in 10.0 mi NNE 9.2 mph 18.4 mph N/A   Scattered Clouds
12:53 PM 82.9 °F 83.7 °F 62.1 °F 49% 30.07 in 10.0 mi ENE 17.3 mph 27.6 mph N/A   Scattered Clouds
1:53 PM 82.9 °F 83.3 °F 61.0 °F 47% 30.05 in 10.0 mi East 16.1 mph 31.1 mph N/A   Scattered Clouds
2:53 PM 82.0 °F 82.7 °F 61.0 °F 49% 30.05 in 10.0 mi ENE 17.3 mph 27.6 mph N/A   Scattered Clouds
3:53 PM 81.0 °F 82.2 °F 63.0 °F 54% 30.04 in 10.0 mi NE 17.3 mph 25.3 mph N/A   Scattered Clouds
4:53 PM 81.0 °F 81.9 °F 62.1 °F 52% 30.05 in 10.0 mi NE 11.5 mph 20.7 mph N/A   Scattered Clouds
5:53 PM 79.0 °F - 62.1 °F 56% 30.06 in 10.0 mi NE 15.0 mph 20.7 mph N/A   Scattered Clouds
6:53 PM 75.9 °F - 63.0 °F 64% 30.08 in 10.0 mi NE 12.7 mph 21.9 mph N/A   Scattered Clouds
7:53 PM 75.0 °F - 63.0 °F 66% 30.09 in 10.0 mi NE 9.2 mph 23.0 mph N/A   Scattered Clouds
8:53 PM 73.9 °F - 64.0 °F 71% 30.12 in 10.0 mi NNE 12.7 mph - 0.00 in Rain Light Rain
9:53 PM 75.0 °F - 64.0 °F 69% 30.14 in 10.0 mi ENE 10.4 mph 17.3 mph 0.00 in   Scattered Clouds
10:53 PM 73.9 °F - 64.0 °F 71% 30.13 in 10.0 mi ENE 11.5 mph - 0.00 in   Scattered Clouds
11:53 PM 73.9 °F - 64.0 °F 71% 30.13 in 10.0 mi NNE 10.4 mph 17.3 mph N/A   Scattered Clouds